Satellite-Ground Cal/Val Site Overpasses Predictions

Prediction of Satellite NPP Overpassing Cal/Val Site: Antarctic Dome C

Ground Cal/Val Site Location: Latitude: -75.10, Longitude: 123.35; Satellite-Ground Site NADIR distance within 100 km.

Table of predicted overpasses for the next 14.0 days since TLE Epoch: 10/15/2017
Interval Starting Time Ending Time Minimum Distance Time Minimum Distance (km)
1 10/17/2017 15:01:49 10/17/2017 15:02:13 10/17/2017 15:02:01 57.39
2 10/18/2017 14:42:58 10/18/2017 14:43:23 10/18/2017 14:43:11 51.80
3 10/19/2017 07:44:40 10/19/2017 07:44:59 10/19/2017 07:44:50 74.99
4 10/20/2017 07:25:46 10/20/2017 07:26:14 10/20/2017 07:26:00 32.75
5 10/22/2017 15:08:13 10/22/2017 15:08:21 10/22/2017 15:08:17 95.47
6 10/23/2017 14:49:13 10/23/2017 14:49:42 10/23/2017 14:49:27 15.98
7 10/25/2017 07:32:02 10/25/2017 07:32:31 10/25/2017 07:32:17 4.54


NCC Satellite Cal/Val Overpasses Prediction Service
